Temperature
26 26 25 24 23 23 23 22 22 21 20 16 15 14 13 12 11 11 11 10 10 9 9 9 9 9 9 9 9 9 9 9 10 10 10 10 10 11 11 11 11 11 12 12
25 25 24 23 21 21 20 19 19 19 16 15 13 12 11 11 10 10 10 10 9 10 10 10 10 10 9 9 9 9 9 9 9 9 9 9 9 10 10 10 10 11 11 11
25 24 23 21 18 18 18 17 17 17 15 14 14 13 12 11 10 10 10 11 11 11 10 10 10 10 10 9 9 9 9 9 9 9 9 9 9 9 9 9 10 10 10 11
24 24 22 17 18 17 17 16 16 15 15 14 13 12 12 12 12 11 11 11 11 10 10 10 10 10 9 9 9 9 9 9 9 9 9 9 9 9 9 9 9 9 10 10
23 23 20 17 16 16 16 16 15 14 15 14 14 13 14 14 12 11 11 11 10 10 10 10 9 9 9 9 9 9 9 9 9 9 9 9 9 9 9 9 9 9 9 9
22 21 20 15 16 15 15 15 14 14 14 14 13 14 14 12 11 11 10 10 10 9 9 9 9 9 9 9 9 9 9 9 9 8 8 8 8 8 8 8 8 8 9 9
20 20 18 16 16 16 16 15 14 13 13 13 13 12 12 11 11 10 10 10 9 9 9 9 9 8 8 8 8 8 8 8 8 8 8 8 8 8 8 8 8 8 8 8
19 19 17 15 16 15 15 13 13 12 12 12 11 11 11 11 10 10 10 9 9 9 9 8 8 8 8 8 8 8 8 7 7 7 7 8 8 8 8 7 8 8 8 8
18 17 15 14 14 14 13 13 12 12 11 11 11 11 10 10 10 10 9 9 9 9 8 8 8 8 8 7 7 7 7 7 7 7 7 7 7 7 8 8 8 8 8 8
17 16 15 15 14 13 13 12 11 11 11 10 10 10 10 10 9 9 9 9 8 8 8 8 8 7 7 7 7 7 7 6 6 7 7 7 7 7 8 8 8 8 8 7
16 16 15 15 14 13 12 11 11 11 10 10 10 10 9 9 9 9 8 8 8 8 7 7 7 7 6 6 6 6 6 6 6 6 7 7 7 7 7 7 8 7 7 7
16 15 14 13 12 12 11 11 10 10 10 10 9 9 9 9 8 8 8 7 7 7 7 6 6 6 6 6 5 5 5 5 6 6 6 6 6 7 7 7 7 7 7 7
14 13 12 12 11 11 11 10 10 10 10 9 9 9 8 8 8 7 7 7 6 6 6 5 5 5 5 5 5 5 5 5 5 5 5 5 6 6 6 7 7 6 6 6
12 12 12 11 11 10 10 10 10 10 9 9 9 8 8 7 7 6 6 6 5 5 5 4 4 4 4 4 4 4 4 4 4 4 5 5 5 6 6 6 6 6 6 6
12 11 11 11 10 10 10 10 9 9 9 8 8 7 7 6 6 5 5 5 4 4 4 4 4 4 4 4 4 4 4 4 4 4 4 5 5 5 6 6 6 6 6 6
11 11 11 10 10 10 9 9 9 9 8 8 7 6 6 5 5 5 4 4 4 4 4 4 3 4 4 4 4 4 4 4 4 4 4 4 5 5 5 6 6 6 6 6
10 10 10 10 9 9 9 8 8 8 7 7 6 5 5 5 4 4 4 4 3 3 4 4 4 4 4 4 4 4 4 4 4 4 4 4 5 5 5 6 6 6 6 6
10 10 9 9 9 8 8 8 7 7 6 6 5 5 4 4 4 4 3 3 3 4 4 4 4 4 4 4 4 4 4 4 4 4 4 4 5 5 5 6 6 6 6 6
10 9 9 8 8 8 7 7 6 6 6 5 5 4 4 4 4 3 3 3 4 4 4 4 4 4 4 4 4 4 4 4 4 4 4 4 5 5 5 6 6 6 6 6
9 9 8 8 7 7 6 6 6 5 5 5 4 4 4 4 3 3 3 4 4 4 4 4 4 4 4 4 4 4 4 4 4 5 5 5 5 5 6 6 6 6 7 7
9 8 8 7 7 6 6 6 5 5 5 4 4 4 3 3 3 3 4 4 4 4 4 4 4 4 4 4 4 4 4 4 5 5 5 5 6 6 6 6 7 7 7 7
8 7 7 6 6 6 6 5 5 5 4 4 4 3 3 3 3 3 4 4 4 4 5 5 5 4 4 4 4 4 5 5 5 5 5 6 6 6 7 7 7 7 8 8
7 7 6 6 6 5 5 5 5 4 4 4 3 3 3 3 3 3 4 4 4 5 5 5 5 5 5 5 5 5 5 5 5 6 6 6 6 7 7 7 7 8 8 9
7 6 6 6 5 5 5 5 4 4 4 4 3 3 3 3 3 4 4 4 5 5 5 5 5 5 5 5 5 5 6 6 6 6 6 7 7 7 8 8 8 9 9 9
6 6 6 5 6 6 5 5 4 4 4 4 4 3 3 3 3 4 4 5 5 5 6 6 6 6 6 6 6 6 6 6 7 7 7 7 8 8 8 9 9 9 10 10
6 6 6 5 5 5 5 4 4 4 4 3 3 3 3 3 4 4 5 5 5 6 6 6 6 6 6 7 7 7 7 7 7 8 8 8 8 9 9 9 10 10 10 11
7 7 6 6 6 5 4 4 4 4 4 3 3 3 3 4 4 4 5 5 5 6 6 6 6 7 7 7 7 7 8 8 8 8 8 9 9 9 10 10 10 11 11 11
Wind_Speed
12 10 8 7 7 7 8 9 11 10 4 5 5 7 8 10 12 13 13 12 11 11 11 11 11 10 10 10 10 10 11 11 11 11 11 12 12 13 13 12 13 12 12 11
11 6 3 0 5 5 4 6 6 5 1 4 6 8 10 12 13 14 13 13 13 13 13 13 13 13 13 13 12 12 13 13 13 12 12 12 12 13 12 12 12 12 13 12
9 3 7 3 6 7 5 4 7 6 4 9 12 12 13 14 15 15 15 16 17 18 17 17 17 17 17 17 16 15 15 16 15 14 14 13 13 13 13 12 12 12 12 12
9 9 9 6 6 7 5 3 2 4 8 12 14 16 17 18 16 15 17 19 21 20 20 20 19 19 19 18 18 18 18 18 17 16 16 15 14 13 12 11 11 11 11 12
7 11 1 6 5 7 8 8 2 7 14 17 18 20 19 13 14 19 22 22 21 21 22 21 21 20 20 19 19 19 19 18 18 17 17 16 16 15 13 12 11 11 11 11
7 10 6 5 7 7 7 6 1 14 19 20 22 21 18 20 22 23 23 22 22 22 23 22 21 20 21 21 20 20 19 19 18 17 18 18 17 16 14 12 12 11 10 10
8 7 2 5 7 9 8 10 15 18 20 21 22 21 24 25 24 24 24 24 24 24 22 21 21 21 22 22 22 21 20 19 19 18 18 18 17 16 14 13 12 11 11 9
6 6 2 5 7 7 11 15 17 20 22 23 24 25 25 26 26 25 25 25 25 23 23 22 22 22 23 23 22 21 20 20 20 19 18 17 16 15 15 14 13 11 9 9
5 4 3 5 8 11 13 17 20 20 23 24 25 26 27 27 26 26 26 26 25 25 25 23 22 22 24 23 22 22 22 21 20 19 18 17 17 17 15 14 12 10 8 6
4 3 6 10 11 13 16 19 21 23 24 25 27 28 28 27 26 26 26 26 25 25 25 24 23 23 23 23 22 22 22 21 19 19 18 18 15 15 14 13 12 10 8 6
6 6 11 10 15 18 20 21 23 23 25 26 27 29 28 27 27 26 26 25 24 24 24 25 24 23 23 22 21 22 21 20 19 18 18 16 16 14 15 13 10 10 9 6
6 9 13 18 19 21 22 22 24 26 27 26 27 28 28 27 26 26 26 25 25 25 25 25 24 23 22 21 20 20 18 18 16 15 13 14 14 14 14 15 11 12 11 9
8 13 17 20 21 22 21 24 25 26 27 28 26 26 27 27 26 26 27 27 27 26 25 25 24 23 23 21 19 18 17 16 14 14 13 13 14 13 12 12 14 15 15 14
12 15 18 20 22 22 23 25 25 27 26 26 26 26 27 27 27 27 27 27 27 26 25 25 24 23 22 19 17 17 17 17 15 13 13 14 13 13 12 12 10 9 11 14
13 16 19 21 22 23 24 25 27 26 26 26 26 26 27 27 27 27 27 26 25 25 25 24 23 22 21 19 18 18 16 13 12 12 12 12 13 13 12 12 11 9 7 7
16 18 19 21 23 25 26 27 27 27 27 27 27 27 27 27 26 26 26 25 24 24 24 23 22 22 20 17 16 14 13 16 14 11 11 12 12 12 11 10 10 9 8 7
17 19 21 22 24 25 26 26 26 26 27 27 28 27 27 27 26 26 25 24 23 23 22 21 20 19 18 16 14 11 10 11 14 12 11 11 11 10 10 9 8 8 8 9
15 18 20 22 23 25 26 26 25 26 26 26 27 26 26 26 25 25 25 24 24 22 20 18 17 17 15 14 11 9 8 8 9 9 9 9 9 9 9 9 9 9 7 9
16 18 20 22 22 23 24 24 25 25 25 24 25 25 25 24 24 24 24 23 23 20 18 17 18 16 13 12 10 7 7 8 7 7 7 8 8 8 8 8 8 8 8 10
17 18 20 22 22 22 22 23 24 23 23 24 24 24 24 24 24 23 23 20 17 15 16 18 17 13 10 8 8 5 5 6 6 6 6 6 7 7 7 7 8 8 10 11
17 19 20 20 21 21 21 22 22 23 23 23 24 24 24 24 24 22 20 18 18 18 18 17 12 9 7 6 6 3 3 4 4 5 5 5 6 6 6 7 7 9 10 11
16 17 19 19 20 20 20 20 21 22 23 23 24 23 23 23 23 21 19 15 17 18 16 12 9 9 8 8 4 2 2 3 3 3 3 4 4 5 6 7 8 10 10 13
15 16 17 18 18 19 20 20 21 21 22 23 23 22 22 21 18 17 17 16 16 19 15 10 11 11 10 5 2 1 1 1 1 2 2 3 4 4 6 9 9 10 12 14
14 15 16 16 17 17 19 20 20 19 21 21 21 21 19 17 17 15 15 18 19 19 14 11 11 11 9 3 2 1 1 1 1 2 2 3 4 5 7 8 9 11 13 16
13 14 14 15 16 15 17 19 19 19 20 18 21 21 18 15 16 17 17 18 20 18 14 12 11 10 6 4 3 2 1 0 0 1 2 3 5 6 8 9 9 11 13 14
12 12 12 13 12 13 14 15 15 16 16 17 18 18 17 16 17 16 15 18 20 17 14 11 10 9 7 6 4 3 2 1 2 3 4 5 7 7 8 10 12 12 12 12
11 10 10 11 12 13 14 14 15 16 16 17 18 17 17 17 17 18 18 16 16 15 13 11 10 9 7 7 5 5 3 3 3 4 5 6 6 7 9 11 11 11 12 12
Wind_Direction
285 293 295 298 309 307 295 300 300 317 358 56 14 343 329 323 319 315 314 316 318 316 314 311 309 305 303 302 302 302 301 300 300 304 309 312 315 313 305 292 281 273 266 264
281 280 276 238 17 351 350 343 330 320 42 28 331 308 301 301 301 299 299 299 298 297 298 297 296 294 293 291 288 286 284 284 285 289 295 301 307 309 307 299 289 279 268 263
291 288 255 212 25 5 2 359 338 331 344 327 313 308 304 300 295 294 298 300 301 305 305 304 302 301 298 297 293 287 283 282 281 282 284 288 295 301 304 303 296 286 275 264
295 293 282 79 48 14 347 320 331 323 318 313 305 302 297 289 290 299 306 307 307 307 305 303 302 300 298 297 295 291 288 286 285 284 284 285 286 291 298 301 298 290 282 272
302 300 188 106 33 359 327 303 258 316 320 317 313 306 300 311 319 311 306 304 303 303 302 301 300 299 298 296 294 291 289 288 288 287 286 284 284 285 289 294 296 292 282 276
312 305 310 72 17 338 298 281 18 324 319 318 316 309 313 322 313 306 304 302 301 300 299 297 297 298 295 292 291 290 290 290 289 287 284 282 282 281 280 283 286 287 280 274
320 308 75 36 346 324 303 325 330 319 315 313 311 306 306 307 306 305 302 300 299 298 296 296 296 294 291 290 288 289 289 288 285 283 281 278 276 274 272 273 280 284 280 271
323 310 45 18 342 337 314 314 313 314 313 311 308 305 305 306 305 304 302 300 300 298 295 293 292 290 288 287 287 287 286 283 281 279 277 276 274 272 268 267 271 274 272 269
333 344 18 327 310 309 309 309 312 314 312 310 308 307 307 307 305 304 302 301 300 297 295 293 291 289 287 287 287 285 282 280 279 277 274 272 270 268 264 258 259 267 263 264
285 276 310 311 307 314 317 314 312 311 310 310 308 307 307 306 305 304 302 301 301 299 296 294 293 291 288 287 285 282 279 277 274 272 270 268 265 262 260 258 256 259 257 259
285 308 313 312 324 323 318 313 311 310 310 309 308 307 307 306 306 305 304 303 301 299 297 295 294 291 289 288 286 282 279 275 273 268 266 267 264 258 258 258 257 260 260 250
323 330 314 313 320 318 315 314 313 312 311 310 308 307 308 307 306 305 304 303 301 299 297 296 295 292 290 287 283 279 277 274 271 267 264 262 262 259 240 239 229 219 232 238
308 313 311 311 313 316 316 313 313 312 311 311 311 310 309 307 307 305 305 304 303 302 300 298 295 292 289 286 282 277 273 272 269 266 263 259 256 255 255 237 222 220 219 218
307 310 310 314 315 315 314 314 313 312 312 313 313 312 310 309 308 307 306 305 304 302 299 296 293 290 289 287 282 276 271 268 263 259 256 255 254 251 250 250 242 233 216 210
315 316 312 312 313 316 318 317 317 316 317 316 316 315 314 312 309 307 306 305 304 300 298 296 293 290 288 284 280 275 270 263 258 255 250 249 249 246 244 244 245 240 220 200
314 313 315 318 319 320 320 321 320 318 319 318 318 317 315 312 309 307 307 306 305 302 300 296 293 290 288 283 279 274 267 259 254 251 247 245 243 240 237 237 237 230 217 192
316 319 323 322 322 321 321 321 319 319 319 319 319 317 315 313 311 310 310 309 306 302 298 296 294 293 291 285 278 271 264 255 245 244 240 238 237 235 235 234 231 227 210 182
315 316 318 320 321 321 320 321 321 320 320 319 318 317 316 315 314 313 312 311 309 306 303 301 300 300 295 289 280 268 259 251 239 236 234 231 232 232 231 230 228 221 196 179
319 320 321 321 322 320 320 321 321 321 320 320 320 319 317 315 314 314 314 314 312 312 314 315 311 306 301 294 286 266 252 245 236 230 229 222 227 230 231 228 221 199 184 171
321 322 322 323 323 323 321 322 322 321 322 323 322 320 319 319 319 319 318 316 313 316 319 318 317 315 311 307 298 272 250 237 229 225 221 221 223 225 222 210 196 183 172 170
323 324 325 325 324 323 323 324 323 323 326 326 324 323 322 321 322 323 321 322 322 328 326 318 319 325 327 325 301 275 246 226 223 222 218 216 215 213 205 186 179 171 169 171
324 325 325 324 324 324 325 325 326 329 329 327 326 325 325 326 327 326 322 323 324 327 328 326 335 344 337 319 313 297 251 231 220 218 211 206 205 203 185 171 165 164 167 167
323 323 323 324 325 323 323 329 333 333 330 329 328 329 329 328 327 328 328 327 327 327 328 332 338 336 322 314 333 333 280 253 226 222 207 201 204 186 165 158 161 164 162 162
322 323 323 324 324 325 331 335 334 332 330 329 331 333 332 331 331 332 328 324 328 326 331 334 330 327 315 318 335 335 309 255 228 207 203 200 180 165 160 159 159 156 158 161
322 322 324 328 329 333 333 333 333 334 334 335 335 337 337 336 334 333 332 333 336 335 340 342 338 330 332 349 350 343 341 29 162 193 198 178 156 151 150 149 148 150 156 160
322 322 327 325 330 334 335 335 334 335 336 338 338 338 339 340 339 339 338 339 342 342 347 350 354 351 355 356 359 11 28 105 153 167 147 136 135 135 138 143 144 147 150 153
322 328 330 335 342 343 338 336 335 336 340 342 337 339 343 344 344 345 345 346 348 350 352 355 359 0 3 9 12 19 29 56 82 100 112 120 124 128 135 137 136 139 143 146
Height
1496 1493 1495 1499 1501 1501 1502 1502 1504 1502 1508 1520 1525 1526 1526 1525 1522 1519 1516 1513 1510 1507 1504 1501 1498 1495 1491 1488 1485 1482 1479 1477 1474 1471 1468 1465 1462 1459 1455 1453 1451 1449 1448 1447
1498 1494 1496 1503 1509 1508 1511 1512 1510 1512 1519 1525 1527 1526 1524 1522 1519 1515 1512 1509 1506 1502 1499 1496 1492 1489 1486 1482 1479 1476 1473 1470 1468 1465 1462 1460 1457 1453 1450 1447 1444 1443 1442 1442
1497 1494 1498 1507 1520 1517 1517 1519 1518 1518 1523 1525 1523 1522 1520 1517 1513 1510 1507 1504 1501 1498 1494 1491 1487 1484 1480 1477 1473 1470 1467 1464 1461 1459 1456 1454 1451 1448 1445 1441 1439 1436 1435 1435
1497 1499 1508 1525 1523 1523 1523 1522 1523 1524 1524 1523 1521 1518 1515 1511 1507 1505 1502 1499 1495 1492 1488 1484 1480 1477 1473 1470 1466 1463 1460 1457 1455 1452 1450 1448 1445 1442 1439 1436 1433 1431 1429 1429
1501 1502 1509 1525 1526 1526 1526 1520 1523 1523 1521 1519 1516 1512 1506 1503 1502 1501 1497 1493 1489 1485 1481 1476 1473 1469 1465 1462 1459 1455 1452 1449 1447 1445 1443 1440 1438 1436 1433 1431 1428 1425 1423 1422
1505 1511 1511 1530 1528 1528 1528 1519 1523 1522 1519 1515 1512 1504 1500 1501 1498 1494 1490 1486 1481 1477 1473 1468 1465 1461 1457 1453 1450 1447 1444 1441 1439 1437 1434 1432 1430 1428 1426 1424 1422 1420 1417 1416
1512 1513 1517 1528 1528 1525 1524 1521 1522 1520 1517 1513 1508 1505 1499 1495 1491 1487 1482 1478 1473 1468 1464 1460 1456 1452 1448 1444 1441 1438 1436 1433 1430 1428 1426 1424 1422 1420 1419 1417 1416 1414 1412 1410
1515 1517 1525 1529 1526 1527 1527 1524 1521 1517 1513 1509 1504 1498 1493 1488 1483 1479 1474 1469 1464 1459 1454 1451 1447 1443 1438 1434 1432 1429 1426 1423 1421 1418 1417 1415 1413 1412 1411 1410 1409 1407 1406 1404
1523 1525 1529 1529 1528 1527 1525 1521 1517 1513 1508 1504 1497 1491 1486 1480 1475 1470 1465 1459 1455 1450 1444 1440 1437 1433 1428 1424 1422 1419 1416 1413 1411 1409 1407 1406 1405 1404 1403 1402 1402 1401 1400 1399
1525 1525 1527 1527 1525 1524 1521 1518 1513 1509 1503 1498 1491 1485 1479 1473 1467 1461 1455 1450 1445 1439 1433 1429 1426 1422 1418 1414 1411 1408 1404 1402 1400 1399 1397 1396 1395 1395 1394 1394 1394 1394 1394 1393
1524 1525 1526 1522 1522 1520 1517 1512 1507 1502 1498 1492 1485 1477 1471 1464 1458 1452 1446 1440 1435 1429 1423 1418 1414 1410 1406 1402 1399 1396 1393 1391 1389 1388 1387 1386 1386 1385 1385 1386 1387 1387 1388 1387
1525 1527 1526 1522 1519 1516 1511 1506 1501 1496 1489 1484 1478 1470 1463 1456 1450 1443 1437 1430 1425 1419 1413 1407 1402 1397 1394 1390 1387 1384 1381 1379 1378 1378 1377 1377 1376 1376 1376 1377 1378 1379 1380 1381
1529 1527 1524 1520 1516 1511 1507 1501 1495 1489 1483 1476 1469 1463 1456 1448 1441 1434 1427 1421 1414 1408 1401 1395 1390 1385 1381 1378 1375 1372 1370 1368 1367 1367 1367 1367 1367 1368 1368 1369 1370 1371 1372 1373
1527 1524 1519 1515 1511 1506 1501 1495 1489 1482 1476 1469 1462 1455 1448 1440 1433 1426 1418 1411 1404 1397 1390 1383 1377 1372 1369 1366 1363 1360 1358 1356 1356 1356 1356 1357 1358 1359 1360 1361 1362 1363 1364 1366
1524 1521 1516 1511 1506 1500 1495 1489 1481 1474 1468 1461 1455 1448 1440 1432 1424 1416 1408 1400 1393 1385 1378 1371 1365 1360 1356 1353 1350 1348 1346 1345 1345 1345 1346 1347 1349 1350 1352 1353 1355 1356 1358 1359
1520 1516 1511 1507 1501 1495 1489 1482 1475 1468 1461 1454 1447 1440 1433 1424 1416 1407 1398 1391 1382 1373 1366 1359 1353 1348 1344 1341 1338 1336 1335 1335 1336 1336 1337 1339 1340 1342 1344 1346 1348 1350 1352 1354
1516 1511 1506 1501 1496 1490 1484 1478 1471 1463 1456 1448 1440 1432 1424 1415 1406 1397 1389 1380 1372 1364 1356 1349 1342 1337 1334 1331 1329 1327 1326 1326 1327 1328 1329 1331 1333 1335 1337 1339 1342 1344 1346 1349
1513 1509 1504 1499 1492 1485 1478 1472 1465 1458 1450 1442 1434 1425 1416 1407 1398 1388 1379 1370 1362 1354 1347 1340 1334 1329 1325 1322 1320 1319 1319 1319 1320 1321 1323 1325 1327 1329 1331 1333 1336 1338 1341 1345
1509 1505 1500 1494 1489 1482 1475 1467 1460 1453 1445 1437 1428 1419 1411 1401 1391 1382 1372 1363 1354 1346 1339 1333 1327 1322 1318 1315 1313 1313 1313 1314 1315 1317 1318 1320 1322 1324 1326 1328 1330 1334 1337 1341
1505 1500 1495 1490 1484 1478 1470 1463 1456 1448 1440 1432 1423 1414 1404 1395 1385 1375 1366 1358 1350 1342 1335 1328 1322 1317 1313 1311 1309 1309 1309 1310 1312 1313 1315 1316 1318 1320 1321 1324 1327 1330 1335 1340
1501 1496 1491 1485 1479 1473 1467 1460 1452 1444 1436 1428 1419 1409 1399 1389 1380 1371 1361 1352 1345 1338 1331 1324 1319 1315 1312 1309 1308 1307 1308 1309 1310 1312 1313 1314 1316 1318 1320 1322 1325 1330 1334 1340
1497 1492 1487 1481 1475 1469 1463 1456 1449 1441 1433 1424 1415 1406 1396 1385 1375 1367 1359 1351 1343 1336 1329 1323 1319 1315 1312 1309 1308 1308 1308 1309 1310 1311 1312 1314 1315 1317 1319 1322 1326 1330 1335 1341
1493 1488 1483 1478 1472 1466 1460 1454 1446 1438 1430 1421 1412 1403 1393 1383 1374 1365 1355 1348 1341 1334 1328 1323 1319 1315 1312 1311 1310 1309 1309 1310 1310 1311 1312 1314 1315 1317 1320 1323 1327 1332 1337 1343
1489 1485 1480 1475 1469 1464 1457 1451 1443 1436 1428 1419 1411 1402 1392 1381 1371 1364 1356 1347 1340 1334 1328 1324 1320 1316 1314 1313 1312 1311 1311 1311 1312 1312 1313 1315 1317 1319 1323 1326 1330 1335 1340 1346
1486 1482 1477 1472 1467 1462 1455 1448 1441 1433 1426 1418 1409 1401 1391 1382 1373 1363 1355 1348 1341 1335 1329 1325 1321 1318 1316 1315 1314 1313 1313 1313 1313 1314 1315 1317 1320 1323 1326 1329 1334 1338 1343 1349
1483 1480 1475 1471 1467 1461 1454 1447 1440 1433 1425 1417 1408 1400 1391 1382 1373 1364 1356 1349 1343 1337 1331 1327 1324 1321 1319 1317 1317 1316 1316 1316 1317 1318 1319 1321 1324 1326 1329 1333 1338 1342 1347 1352
1481 1478 1474 1470 1465 1459 1453 1447 1440 1433 1426 1419 1410 1401 1393 1384 1375 1367 1359 1352 1346 1340 1335 1331 1327 1325 1323 1321 1320 1320 1320 1320 1321 1322 1324 1326 1328 1331 1335 1339 1343 1347 1351 1356